Location: Unspecified
(0.0000°N, 0.0000°E)
Time: 09:33:53
(UTC+00:00)

USA 238 - Visible Passes

Search period start: 09 June 2026 00:00
Search period end: 19 June 2026 00:00
Orbit: 883 x 1328 km, 63.4° (Epoch: 10 January)

Date Brightness Start Highest point End Pass type
(mag) Time Alt. Az. Time Alt. Az. Time Alt. Az.
16 Jun 5.7 20:53:52 13° N 20:53:52 13° N 20:54:28 10° N visible
17 Jun 3.1 19:58:07 10° SSW 20:04:00 88° ESE 20:09:54 10° NNE visible
18 Jun 3.6 19:13:36 10° S 19:19:07 42° ESE 19:24:37 10° NE visible
18 Jun 6.0 21:06:47 10° W 21:09:41 14° WNW 21:12:36 10° NW visible
